Regional Weather Roundup
Issued by NWS

Home | Current Version | Previous Version | Graphics & Text | Print | Product List | Glossary On
Versions: 1 2 3 4 5 6 7 8 9 10 11 12 13 14 15 16 17 18 19 20 21 22 23 24 25 26 27 28 29 30 31 32 33 34 35 36 37 38 39 40 41 42 43 44 45 46 47 48 49 50
000
ASUS43 KMPX 172110
RWRMN
WEATHER ROUNDUP FOR MINNESOTA
NATIONAL WEATHER SERVICE TWIN CITIES/CHANHASSEN MN
300 PM CST WED JAN 17 2018


NOTE: "FAIR" INDICATES FEW OR NO CLOUDS BELOW 12,000 FEET WITH NO
SIGNIFICANT WEATHER AND/OR OBSTRUCTIONS TO VISIBILITY. N/A MEANS
CURRENT SKY AND/OR WEATHER CONDITIONS ARE NOT AVAILABLE.

MNZ060>063-068>070-172200-
   Twin Cities Metro

CITY           SKY/WX    TMP DP  RH WIND       PRES   REMARKS
TWIN CITIES    FAIR      26  11  52 SW9       30.13F WCI  17
ST PAUL        FAIR      26   9  48 SW8       30.15F WCI  18
CRYSTAL        FAIR      26   8  46 SW13      30.11F WCI  15
BLAINE         SUNNY     28  10  47 SW12      30.10F WCI  18
LAKEVILLE      FAIR      25  10  54 SW9G16    30.14S WCI  15
EDEN PRAIRIE   FAIR      25  11  55 SW16      30.12F WCI  12
SOUTH ST PAUL  FAIR      27  10  48 SW8       30.13F WCI  19
LAKE ELMO      FAIR      25  12  58 S9        30.13S WCI  15
$$
MNZ001>005-007-008-013>017-022>024-027-028-172200-
   Northwest Minnesota

CITY           SKY/WX    TMP DP  RH WIND       PRES   REMARKS
BEMIDJI        FAIR      28  15  59 W15       29.89S WCI  16
HALLOCK        FAIR      27  21  80 S14       29.83F WCI  15
ROSEAU         FAIR      23  16  74 SW12G18   29.82F WCI  12
WARROAD        FAIR      23  14  68 SW8       29.81F WCI  14
THIEF RVR FALL FAIR      21  14  74 SW16      29.90S WCI   7
CROOKSTON      FAIR      23  18  80 S14       29.94S WCI  11
FOSSTON        FAIR      21  12  68 SW17      29.93S WCI   7
DETROIT LAKES  FAIR      27  16  63 SW8       29.98F WCI  18
MOORHEAD       FAIR      27  18  69 SW10      30.01F WCI  17
PARK RAPIDS    FAIR      26  13  57 SW13G23   29.93F WCI  15
MAHNOMEN       FAIR      22  14  71 SW17      29.95S WCI   7
$$
MNZ006-009>011-018-025>026-172200-
   North Central Minnesota

CITY           SKY/WX    TMP DP  RH WIND       PRES   REMARKS
BAUDETTE       FAIR      23  12  62 SW7       29.80F WCI  15
FLAG ISLAND    FAIR      25  10  54 SW12      29.78R WCI  14
INTL FALLS     FAIR      26  10  50 W9        29.81F WCI  17
WASKISH        FAIR      21  14  73 SW14      29.86S WCI   8
BIG FORK       FAIR      32  12  43 SW12G17   29.84S WCI  23
LONGVILLE      FAIR      30  10  43 SW7G16    29.90F WCI  23
GRAND RAPIDS   FAIR      32  10  40 SW10G17   29.89F WCI  24
CRANE LAKE     FAIR      28  10  47 SW6       29.83R WCI  22
ORR            FAIR      30   7  37 SW9       29.79F WCI  22
COOK           PTSUNNY   30  12  47 SW12G18   29.82F WCI  21
WALKER         FAIR      31  12  46 W16       29.90R WCI  19
$$
MNZ012-019>021-037-172200-
   Northeast Minnesota

CITY           SKY/WX    TMP DP  RH WIND       PRES   REMARKS
DULUTH         FAIR      24   8  50 W15       29.88R WCI  11
ELY            FAIR      27  10  50 W15       29.80F WCI  15
HIBBING        FAIR      28  12  51 SW8       29.86F WCI  20
EVELETH        FAIR      27   9  46 SW10      29.86S WCI  18
DULUTH HARBOR  FAIR      27  10  50 SW17G30   29.94R WCI  14
TWO HARBORS    FAIR      36  12  38 SW14      29.83F
GRAND MARAIS     N/A     32  25  75 SW29G36   29.78F WCI  18
G MARAIS ARPRT FAIR      28   9  43 SW10G18   29.72F WCI  19
$$
MNZ029>031-032-039>041-046>048-054>057-064-172200-
   West Central Minnesota

CITY           SKY/WX    TMP DP  RH WIND       PRES   REMARKS
FERGUS FALLS     N/A    N/A N/A N/A MISG        N/A
MORRIS         SUNNY     36  19  51 SW13      30.05S
ALEXANDRIA     FAIR      31  16  54 W12       30.03F WCI  22
ELBOW LAKE     FAIR      32  20  61 NW13      30.05F HAZE    WCI  23
WADENA         FAIR      27  12  54 SW13      29.98F WCI  16
GLENWOOD       FAIR      30  16  55 SW14      30.04F WCI  20
APPLETON       SUNNY     36  19  51 SW9       30.08R
BENSON         SUNNY     36  16  44 W13       30.08S
ORTONVILLE     SUNNY     36  18  48 W10G17    30.08R
MADISON        SUNNY     36  19  51 W9        30.09S
WILLMAR        FAIR      30  18  59 SW5       30.09F WCI  25
$$
MNZ033>034-036-042>043-049>051-058-059-172200-
   Central Minnesota

CITY           SKY/WX    TMP DP  RH WIND       PRES   REMARKS
ST CLOUD       FAIR      25  13  60 SW12      30.07F WCI  14
SAUK CENTRE      N/A     29  14  52 SW12      30.04F WCI  19
PAYNESVILLE    FAIR      29  16  58 SW9       30.08S WCI  21
AITKIN         FAIR      27   7  43 SW10G18   29.93F WCI  17
PINE RIVER     FAIR      28  10  47 SW8       29.97F WCI  20
BRAINERD       FAIR      28  11  48 SW20      29.97F WCI  15
STAPLES        FAIR      28  10  47 SW9       29.99F WCI  20
LONG PRAIRIE   FAIR      28  14  54 S13       30.03F WCI  18
LITTLE FALLS   FAIR      28   3  34 SW6       30.03F WCI  22
LITCHFIELD     FAIR      30  18  59 SW8       30.09F WCI  23
BUFFALO        FAIR      26  13  57 S9        30.11F WCI  17
MAPLE LAKE     FAIR      28  15  58 MISG      30.09F
HUTCHINSON     FAIR      30  18  60 SW10      30.13F WCI  21
$$
MNZ037-044-045-052-053-172200-
   East Central Minnesota

CITY           SKY/WX    TMP DP  RH WIND       PRES   REMARKS
PRINCETON      FAIR      27  10  50 SW12      30.07F WCI  16
MORA           FAIR      27  10  50 SW13G20   30.06S WCI  16
CAMBRIDGE      FAIR      27  12  54 SW10      30.07F WCI  17
RUSH CITY      FAIR      24   8  49 SW10G16   30.06F WCI  14
MOOSE LAKE     FAIR      27   9  46 SW14G20   29.93F WCI  15
HINCKLEY       FAIR      25  10  54 SW13G20   30.02F WCI  13
CLOQUET        FAIR      25   3  39 SW12      29.90F WCI  14
MCGREGOR       FAIR      27  10  50 SW12G18   29.94F WCI  16
$$
MNZ071>073-080-081-089-090-097-098-172200-
   Southwest Minnesota

CITY           SKY/WX    TMP DP  RH WIND       PRES   REMARKS
MONTEVIDEO     SUNNY     39  18  41 W7        30.08F
GRANITE FALLS  SUNNY     35  20  55 SW12      30.12F WCI  26
CANBY          SUNNY     34  17  50 SW23G32   30.07S WCI  22
MARSHALL       SUNNY     29  17  61 NW9G22    30.12R WCI  20
REDWOOD FALLS  SUNNY     30  15  53 W10       30.13S WCI  21
OLIVIA         SUNNY     32  18  55 SW10      30.11F WCI  24
PIPESTONE      SUNNY     25  14  63 W16       30.16S WCI  12
WINDOM         SUNNY     28   9  43 SW21      30.14F WCI  15
WORTHINGTON    SUNNY     27  17  66 SW21G26   30.15F WCI  13
JACKSON        SUNNY     28  18  64 SW20      30.17F WCI  15
SLAYTON        SUNNY     26  16  67 SW18G24   30.14F WCI  12
$$
MNZ065>067-074>077-082>085-091>093-172200-
   South Central Minnesota

CITY           SKY/WX    TMP DP  RH WIND       PRES   REMARKS
MANKATO        FAIR      28  15  58 S15       30.15F WCI  16
NEW ULM        SUNNY     30  16  55 SW12G17   30.14R WCI  21
ST JAMES       SUNNY     28  18  64 S13G21    30.15F WCI  18
FAIRMONT       SUNNY     28  16  60 SW25      30.15F WCI  13
GLENCOE        FAIR      30  18  59 SW7       30.13S WCI  23
FARIBAULT      FAIR      25  14  63 S13G23    30.15F WCI  13
OWATONNA       FAIR      23  16  74 S17G26    30.15F WCI   9
WASECA         FAIR      23  16  74 S22       30.17F WCI   8
ALBERT LEA     FAIR      25  10  54 SW12G21   30.19F WCI  14
$$
MNZ078>079-086>088-094>096-172200-
   Southeast Minnesota

CITY           SKY/WX    TMP DP  RH WIND       PRES   REMARKS
ROCHESTER      FAIR      21  12  68 SW22G31   30.16F WCI   5
RED WING       FAIR      25   7  46 W16G22    30.15F WCI  12
STANTON        FAIR      24  13  64 SW12G17   30.14S WCI  13
DODGE CENTER   FAIR      21  10  63 S21       30.15F WCI   6
WINONA         FAIR      30  12  47 W7        30.19F WCI  23
AUSTIN         FAIR      23  12  63 SW18      30.20F WCI   9
PRESTON        FAIR      22  10  60 SW22G28   30.19F WCI   6
$$
ABBREVIATIONS USED IN REMARKS
   TC - TEMPERATURES IN CELSIUS
  WCI - WIND CHILL INDEX
   HX - HEAT INDEX
  VSB - VISIBILITY
$$




USA.gov is the U.S. government's official web portal to all federal, state and local government web resources and services.